Tracking 17143 objects as of 25-May-2015
HD Live streaming from Space Station

ARIANE 5 DEB (SYLDA)

Track ARIANE 5 DEB (SYLDA) now!
ARIANE 5 DEB (SYLDA) is classified as:


NORAD ID: 28914
Int'l Code: 2005-049D
Perigee: 634.9 km
Apogee: 36,060.1 km
Inclination: 4.5 °
Period: 644.6 minutes
Semi major axis: 24718 km
RCS: 22.4158 m2 (large)
Launch date: December 21, 2005
Source: France (FR)

Note: This is SATELLITE DEBRIS
Your satellite tracking list
Your tracking list is empty





NASA's NSSDC Master Catalog

Two Line Element Set (TLE):
1 28914U 05049D   15145.31916515 -.00000200  00000-0  63493-3 0  9990
2 28914 004.4778 035.1486 7165737 200.5423 006.3933 02.23393331 76898

Source of the keplerian elements: AFSPC

N2YO: 300